Simultaneous Nadir Overpasses (SNOs) Predictions

Prediction of SNOs between METOP-B and NOAA-19 Satellite Orbit:

Table of predicted SNOs for the next 14.0 days since TLE Epoch: 7/15/2016
Index Date (METOP-B) Time (METOP-B) Lat,Lon (METOP-B) SZA (METOP-B ) Date (NOAA-19) Time (NOAA-19) Lat,Lon (NOAA-19) SZA (NOAA-19 ) Distance(km) Time Diff (sec)
1 07/17/2016 10:20:11 76.19, 26.00 55.04 07/17/2016 10:18:56 76.21, 25.89 55.06 3.38 75
2 07/17/2016 11:10:53 -76.17,-166.75 124.98 07/17/2016 11:09:51 -76.17,-166.70 124.98 1.30 62
3 07/17/2016 12:01:33 76.18, 0.60 55.03 07/17/2016 12:00:57 76.16, 0.55 55.02 2.10 36
4 07/17/2016 12:52:15 -76.15, 167.85 124.99 07/17/2016 12:51:53 -76.17, 167.79 124.97 2.38 22
5 07/17/2016 13:42:56 76.12, -24.95 54.99 07/17/2016 13:42:58 76.12, -24.79 54.99 4.27 2
6 07/17/2016 14:33:37 -76.14, 142.46 124.99 07/17/2016 14:33:54 -76.12, 142.45 125.00 1.50 17
7 07/17/2016 15:24:18 76.10, -50.35 54.98 07/17/2016 15:25:00 76.12, -50.30 55.00 2.46 42
8 07/17/2016 16:14:59 -76.12, 117.06 124.99 07/17/2016 16:15:56 -76.12, 116.95 124.99 3.03 57
9 07/17/2016 17:05:47 75.76, -76.82 54.66 07/17/2016 17:06:55 75.80, -74.68 54.70 58.77 68
10 07/28/2016 02:16:07 -76.64, -31.34 122.34 07/28/2016 02:15:00 -76.66, -34.59 122.31 83.54 67
11 07/28/2016 03:06:56 76.23, 134.46 57.26 07/28/2016 03:05:54 76.23, 134.30 57.26 4.20 62
12 07/28/2016 03:57:39 -76.18, -58.39 122.79 07/28/2016 03:56:51 -76.18, -58.24 122.79 3.99 48
13 07/28/2016 04:48:19 76.17, 108.90 57.21 07/28/2016 04:47:55 76.19, 108.96 57.23 2.95 24
14 07/28/2016 05:39:01 -76.16, -83.78 122.79 07/28/2016 05:38:53 -76.18, -83.74 122.77 1.91 8
15 07/28/2016 06:29:41 76.15, 83.51 57.21 07/28/2016 06:29:56 76.14, 83.62 57.21 3.06 15
16 07/28/2016 07:20:23 -76.15,-109.18 122.79 07/28/2016 07:20:54 -76.13,-109.08 122.80 3.03 31
17 07/28/2016 08:11:03 76.13, 58.11 57.21 07/28/2016 08:11:58 76.14, 58.11 57.22 1.19 55
18 07/28/2016 09:01:45 -76.13,-134.57 122.79 07/28/2016 09:02:56 -76.13,-134.59 122.79 0.36 71




NCC Satellite Simultaneous Nadir Overpasses (SNOs) Prediction Service
